User: anonymous
Location: Balls_Creek
(35.6670°N, 81.1170°W)
Time: 02:48:18
(UTC-04:00)
Language:

Iridium 42 - Orbit

View from above orbital plane
View from above orbital plane
View from above satellite
View from above satellite

Ground track
Ground track

The orbit data is extracted from the following two-line orbital elements,

1 25077U 97077A   14231.48546155  .00000111  00000-0  32648-4 0  9181
2 25077 086.3938 093.6748 0002102 100.6056 259.5377 14.34219292874150
Epoch (UTC): 19 August 2014 11:39:03
Eccentricity: 0.0002102
inclination: 86.3938°
perigee height: 776 km
apogee height: 779 km
right ascension of ascending node: 93.6748°
argument of perigee: 100.6056°
revolutions per day: 14.34219292
mean anomaly at epoch: 259.5377°
orbit number at epoch: 87415

The dashed part of the orbit path shows where the satellite is in the earth's shadow,  

DLR